• In Czech Republic
  • List of Countries
  • For 7 days
  • Water Temperature
  • Satellite Maps
  • Weather Map
  • Weather Widgets
  • user-avatar
    Login

    Hourly Weather Xicotencatl

    Today, 25 November, Saturday

    Time Temperature Precipitation Wind Pressure Humidity
    00:00 +18°C° 0 mm 1 mps 751 mmHg 72%
    01:00 +18°C° 0 mm 1 mps 750 mmHg 72%
    02:00 +16°C° 0 mm 1 mps 750 mmHg 73%
    03:00 +16°C° 0 mm 1 mps 750 mmHg 72%
    04:00 +16°C° 0 mm 1 mps 750 mmHg 71%
    05:00 +16°C° 0 mm 1 mps 750 mmHg 70%
    06:00 +19°C° 0 mm 1 mps 750 mmHg 64%
    07:00 +21°C° 0 mm 1 mps 751 mmHg 58%
    08:00 +23°C° 0 mm 1 mps 751 mmHg 52%
    09:00 +25°C° 0 mm 1 mps 751 mmHg 47%
    10:00 +27°C° 0 mm 2 mps 751 mmHg 42%
    11:00 +30°C° 0 mm 2 mps 751 mmHg 37%
    12:00 +30°C° 0 mm 2 mps 750 mmHg 36%
    13:00 +31°C° 0 mm 2 mps 750 mmHg 36%
    14:00 +31°C° 0 mm 2 mps 749 mmHg 35%
    15:00 +29°C° 0 mm 1 mps 750 mmHg 43%
    16:00 +26°C° 0 mm 1 mps 750 mmHg 51%
    17:00 +24°C° 0 mm 1 mps 750 mmHg 60%
    18:00 +23°C° 0 mm 1 mps 751 mmHg 63%
    19:00 +22°C° 0 mm 1 mps 752 mmHg 67%
    20:00 +22°C° 0 mm 1 mps 752 mmHg 70%
    21:00 +21°C° 0 mm 1 mps 753 mmHg 71%
    22:00 +21°C° 0 mm 1 mps 753 mmHg 72%
    23:00 +21°C° 0 mm 1 mps 754 mmHg 73%

    Tomorrow, 26 November, Sunday

    Time Temperature Precipitation Wind Pressure Humidity
    00:00 +20°C° 0 mm 1 mps 754 mmHg 71%
    01:00 +20°C° 0 mm 1 mps 754 mmHg 69%
    02:00 +20°C° 0 mm 1 mps 754 mmHg 68%
    03:00 +20°C° 0 mm 1 mps 754 mmHg 65%
    04:00 +19°C° 0 mm 1 mps 755 mmHg 63%
    05:00 +19°C° 0 mm 1 mps 755 mmHg 61%
    06:00 +21°C° 0 mm 1 mps 756 mmHg 55%
    07:00 +23°C° 0 mm 1 mps 756 mmHg 49%
    08:00 +25°C° 0 mm 1 mps 757 mmHg 44%
    09:00 +26°C° 0 mm 2 mps 757 mmHg 39%
    10:00 +28°C° 0 mm 3 mps 757 mmHg 35%
    11:00 +30°C° 0 mm 3 mps 757 mmHg 31%
    12:00 +30°C° 0 mm 3 mps 756 mmHg 31%
    13:00 +30°C° 0 mm 3 mps 755 mmHg 31%
    14:00 +30°C° 0 mm 3 mps 754 mmHg 32%
    15:00 +28°C° 0 mm 3 mps 755 mmHg 39%
    16:00 +26°C° 0 mm 2 mps 755 mmHg 46%
    17:00 +24°C° 0 mm 2 mps 755 mmHg 53%
    18:00 +23°C° 0 mm 2 mps 756 mmHg 57%
    19:00 +22°C° 0 mm 1 mps 756 mmHg 62%
    20:00 +21°C° 0 mm 1 mps 757 mmHg 67%
    21:00 +21°C° 0 mm 1 mps 757 mmHg 69%
    22:00 +21°C° 0 mm 1 mps 757 mmHg 72%
    23:00 +20°C° 0 mm 1 mps 757 mmHg 74%

    Day after tomorrow, 27 November, Monday

    Time Temperature Precipitation Wind Pressure Humidity
    00:00 +20°C° 0 mm 1 mps 756 mmHg 74%
    01:00 +20°C° 0 mm 1 mps 756 mmHg 75%
    02:00 +20°C° 0 mm 1 mps 755 mmHg 75%
    03:00 +20°C° 0 mm 1 mps 755 mmHg 76%
    04:00 +19°C° 0 mm 1 mps 755 mmHg 78%
    05:00 +19°C° 0 mm 1 mps 755 mmHg 79%
    06:00 +21°C° 0 mm 1 mps 755 mmHg 73%
    07:00 +22°C° 0 mm 1 mps 756 mmHg 66%
    08:00 +22°C° 0 mm 0 mps 756 mmHg 60%
    09:00 +26°C° 0 mm 1 mps 756 mmHg 55%
    10:00 +28°C° 0 mm 1 mps 755 mmHg 50%
    11:00 +29°C° 0 mm 1 mps 755 mmHg 45%
    12:00 +29°C° 0 mm 1 mps 754 mmHg 45%
    13:00 +29°C° 0 mm 2 mps 753 mmHg 45%
    14:00 +29°C° 0 mm 2 mps 752 mmHg 46%
    15:00 +28°C° 0 mm 2 mps 752 mmHg 53%
    16:00 +26°C° 0 mm 2 mps 752 mmHg 60%
    17:00 +24°C° 0 mm 2 mps 752 mmHg 67%
    18:00 +23°C° 0 mm 1 mps 753 mmHg 72%
    19:00 +22°C° 0 mm 1 mps 753 mmHg 77%
    20:00 +22°C° 0 mm 1 mps 754 mmHg 82%
    21:00 +21°C° 0 mm 1 mps 754 mmHg 84%
    22:00 +21°C° 0 mm 1 mps 753 mmHg 86%
    23:00 +21°C° 0 mm 1 mps 753 mmHg 89%

    28 November, Tuesday

    Time Temperature Precipitation Wind Pressure Humidity
    00:00 +20°C° 0 mm 1 mps 753 mmHg 89%
    01:00 +20°C° 0 mm 1 mps 752 mmHg 90%
    02:00 +20°C° 0 mm 1 mps 752 mmHg 91%
    03:00 +19°C° 0 mm 1 mps 752 mmHg 91%
    04:00 +19°C° 0 mm 1 mps 752 mmHg 90%
    05:00 +19°C° 0 mm 1 mps 752 mmHg 90%
    06:00 +20°C° 0 mm 1 mps 752 mmHg 83%
    07:00 +22°C° 0 mm 1 mps 753 mmHg 75%
    08:00 +24°C° 0 mm 2 mps 753 mmHg 68%
    09:00 +25°C° 0 mm 2 mps 752 mmHg 62%
    10:00 +27°C° 0 mm 3 mps 752 mmHg 56%
    11:00 +29°C° 0 mm 4 mps 752 mmHg 50%
    12:00 +29°C° 0 mm 4 mps 751 mmHg 49%
    13:00 +29°C° 0 mm 4 mps 750 mmHg 49%
    14:00 +30°C° 0 mm 4 mps 749 mmHg 48%
    15:00 +28°C° 0 mm 3 mps 750 mmHg 56%
    16:00 +26°C° 0 mm 2 mps 750 mmHg 64%
    17:00 +24°C° 0 mm 2 mps 751 mmHg 72%
    18:00 +24°C° 0 mm 2 mps 752 mmHg 77%
    19:00 +23°C° 0 mm 1 mps 752 mmHg 82%
    20:00 +22°C° 0 mm 1 mps 753 mmHg 87%
    21:00 +22°C° 0 mm 1 mps 753 mmHg 88%
    22:00 +22°C° 0 mm 1 mps 753 mmHg 88%
    23:00 +22°C° 0 mm 1 mps 753 mmHg 89%

    29 November, Wednesday

    Time Temperature Precipitation Wind Pressure Humidity
    00:00 +22°C° 0 mm 1 mps 753 mmHg 90%
    01:00 +19°C° 0 mm 0 mps 753 mmHg 91%
    02:00 +19°C° 0 mm 0 mps 753 mmHg 92%
    03:00 +19°C° 0 mm 0 mps 754 mmHg 92%
    04:00 +21°C° 0 mm 1 mps 754 mmHg 92%
    05:00 +20°C° 0 mm 1 mps 755 mmHg 92%
    06:00 +22°C° 0 mm 1 mps 755 mmHg 86%
    07:00 +23°C° 0 mm 1 mps 756 mmHg 79%
    08:00 +25°C° 0 mm 1 mps 757 mmHg 73%
    09:00 +26°C° 0 mm 1 mps 756 mmHg 66%
    10:00 +27°C° 0 mm 1 mps 756 mmHg 59%
    11:00 +29°C° 0 mm 1 mps 756 mmHg 52%
    12:00 +29°C° 0 mm 1 mps 755 mmHg 51%
    13:00 +29°C° 0 mm 1 mps 755 mmHg 50%
    14:00 +29°C° 0 mm 1 mps 754 mmHg 49%
    15:00 +28°C° 0 mm 1 mps 754 mmHg 54%
    16:00 +26°C° 0 mm 1 mps 754 mmHg 60%
    17:00 +23°C° 0 mm 0 mps 755 mmHg 65%
    18:00 +24°C° 0 mm 1 mps 755 mmHg 68%
    19:00 +23°C° 0 mm 1 mps 756 mmHg 72%
    20:00 +23°C° 0 mm 1 mps 756 mmHg 75%
    21:00 +22°C° 0 mm 1 mps 756 mmHg 78%
    22:00 +22°C° 0 mm 1 mps 756 mmHg 80%
    23:00 +20°C° 0 mm 0 mps 756 mmHg 82%

    30 November, Thursday

    Time Temperature Precipitation Wind Pressure Humidity
    00:00 +19°C° 0 mm 0 mps 755 mmHg 83%
    01:00 +21°C° 0 mm 1 mps 755 mmHg 84%
    02:00 +21°C° 0 mm 1 mps 754 mmHg 86%
    03:00 +20°C° 0 mm 1 mps 754 mmHg 86%
    04:00 +20°C° 0 mm 1 mps 755 mmHg 87%
    05:00 +20°C° 0 mm 1 mps 755 mmHg 87%
    06:00 +21°C° 0 mm 1 mps 755 mmHg 81%
    07:00 +23°C° 0 mm 1 mps 755 mmHg 74%
    08:00 +24°C° 0 mm 1 mps 756 mmHg 68%
    09:00 +26°C° 0 mm 1 mps 755 mmHg 60%
    10:00 +28°C° 0 mm 2 mps 755 mmHg 53%
    11:00 +30°C° 0 mm 2 mps 754 mmHg 46%
    12:00 +30°C° 0 mm 2 mps 753 mmHg 44%
    13:00 +30°C° 0 mm 2 mps 753 mmHg 42%
    14:00 +31°C° 0 mm 2 mps 752 mmHg 40%
    15:00 +29°C° 0 mm 2 mps 752 mmHg 47%
    16:00 +27°C° 0 mm 2 mps 753 mmHg 54%
    17:00 +25°C° 0 mm 1 mps 753 mmHg 61%
    18:00 +24°C° 0 mm 1 mps 754 mmHg 67%
    19:00 +23°C° 0 mm 1 mps 754 mmHg 72%
    20:00 +22°C° 0 mm 1 mps 755 mmHg 78%
    21:00 +21°C° 0 mm 1 mps 755 mmHg 80%
    22:00 +21°C° 0 mm 1 mps 755 mmHg 81%
    23:00 +21°C° 0 mm 1 mps 755 mmHg 83%
    Show more